Regional Weather Roundup
Issued by NWS

Home | Current Version | Previous Version | Graphics & Text | Print | Product List | Glossary On
Versions: 1 2 3 4 5 6 7 8 9 10 11 12 13 14 15 16 17 18 19 20 21 22 23 24 25 26 27 28 29 30 31 32 33 34 35 36 37 38 39 40 41 42 43 44 45 46 47 48 49 50
000
ASUS44 KMEG 191500
RWRTN
TENNESSEE HOURLY STATE WEATHER ROUNDUP
NATIONAL WEATHER SERVICE MEMPHIS TN
900 AM CST SUN FEB 19 2017

TNZ002-004-019-021-049-052-054-088>092-191600-
WEST TENNESSEE

CITY           SKY/WX    TMP DP  RH WIND       PRES   REMARKS
MEMPHIS INTL   SUNNY     58  54  86 CALM      30.10R
NWS MEMPHIS      N/A     53 N/A N/A MISG        N/A
JACKSON        SUNNY     57  54  89 CALM      30.11S
UNION CITY     CLOUDY   N/A N/A N/A CALM      30.10S VSB 1
PARIS          SUNNY     54  52  94 SW7       30.12S
$$

TNZ008-025-027-028-033-062-065-066-191600-
NORTH MIDDLE TENNESSEE

CITY           SKY/WX    TMP DP  RH WIND       PRES   REMARKS
NASHVILLE      CLOUDY    54  49  83 CALM      30.14R
CLARKSVILLE    SUNNY     50  48  93 VRB3      30.12R
SMYRNA         PTSUNNY   53  51  93 CALM      30.15R
CROSSVILLE     CLOUDY    52  46  80 N9        30.14R
$$

TNZ061-075-076-078-094-096-097-191600-
SOUTH MIDDLE TENNESSEE

CITY           SKY/WX    TMP DP  RH WIND       PRES   REMARKS
TULLAHOMA      SUNNY     55  54  94 CALM      30.13R
WINCHESTER     MOSUNNY   54  52  94 CALM      30.13R
MCMINNVILLE    CLOUDY    50  50 100 CALM      30.14R VSB 1
COLUMBIA       SUNNY    N/A N/A N/A CALM      30.11R
SHELBYVILLE    SUNNY     57  54  88 CALM      30.13R
$$

TNZ017-018-042-046-047-191600-
NORTHEAST TENNESSEE

CITY           SKY/WX    TMP DP  RH WIND       PRES   REMARKS
TRI CITIES     CLOUDY    51  48  89 SW5       30.11R
$$

TNZ012-013-036-069-073-074-191600-
CENTRAL EAST TENNESSEE

CITY           SKY/WX    TMP DP  RH WIND       PRES   REMARKS
KNOXVILLE      CLOUDY    52  48  86 SW3       30.12R FOG
OAK RIDGE      CLOUDY    53  49  86 CALM      30.15R
GATLINBURG     CLOUDY    52  48  87 CALM      30.12R
$$

TNZ083-085-099-191600-
SOUTHEAST TENNESSEE

CITY           SKY/WX    TMP DP  RH WIND       PRES   REMARKS
CHATTANOOGA    FOG       54  51  90 CALM      30.13R VSB 1
$$

SKY/WX REPORTED AS FAIR MEANS FEW OR NO CLOUDS BELOW
12 THOUSAND FEET.





USA.gov is the U.S. government's official web portal to all federal, state and local government web resources and services.